Weather reports worldwide

Advertisment
Thorney Island, United Kingdom (3872): temperature & dewpoint: 30.03.2020 22:00:00 - 05.04.2020 22:00:00 (BST)Thorney Island, United Kingdom (3872): temperature -20cm & temperature -100cm: 30.03.2020 22:00:00 - 05.04.2020 22:00:00 (BST)Thorney Island, United Kingdom (3872): wind speed: 30.03.2020 22:00:00 - 05.04.2020 22:00:00 (BST)Thorney Island, United Kingdom (3872): wind direction: 30.03.2020 22:00:00 - 05.04.2020 22:00:00 (BST)Thorney Island, United Kingdom (3872): reduced air pressure: 30.03.2020 22:00:00 - 05.04.2020 22:00:00 (BST)Thorney Island, United Kingdom (3872): visibility: 30.03.2020 22:00:00 - 05.04.2020 22:00:00 (BST)Thorney Island, United Kingdom (3872): precipitation: 30.03.2020 22:00:00 - 05.04.2020 22:00:00 (BST)
Date & Time tt [°C] td [°C] tt -20cm [°C] tt -100cm [°C] ff [km/h] ff [kn] dd ppp [hPa] vv [km] rr [mm]
05.04.2020 22:00:00 11,8 7,5 - - 24 13 S 1010,3 35 0,0
05.04.2020 21:00:00 12,2 7,0 - - 26 14 SSE 1010,1 50 0,0
05.04.2020 20:00:00 13,2 5,9 - - 28 15 SSE 1009,9 45 0,0
05.04.2020 19:00:00 14,0 5,9 - - 26 14 SE 1010,0 40 0,0
05.04.2020 18:00:00 13,9 6,8 - - 22 12 ESE 1010,2 40 0,0
05.04.2020 17:00:00 16,1 7,2 - - 26 14 ESE 1010,7 45 0,0
05.04.2020 16:00:00 16,0 8,1 - - 28 15 SE 1011,3 30 0,0
05.04.2020 15:00:00 15,4 7,0 - - 29 16 ESE 1011,9 21 0,0
05.04.2020 14:00:00 14,9 7,4 - - 26 14 ESE 1012,6 40 0,0
05.04.2020 13:00:00 13,8 7,2 - - 28 15 ESE 1013,1 40 0,0
05.04.2020 12:00:00 13,6 7,5 - - 24 13 ESE 1013,6 35 0,0
05.04.2020 11:00:00 12,9 6,2 - - 28 15 ESE 1014,0 30 0,0
05.04.2020 10:00:00 12,1 6,1 9,4 7,9 28 15 ESE 1014,4 29 0,0
05.04.2020 09:00:00 11,2 5,6 - - 21 11 ESE 1014,7 27 0,0
05.04.2020 08:00:00 9,8 5,5 - - 18 10 ESE 1014,7 21 0,0
05.04.2020 07:00:00 8,4 4,9 - - 16 9 E 1014,8 30 0,0
05.04.2020 06:00:00 8,4 4,6 - - 22 12 ESE 1014,9 30 0,0
05.04.2020 05:00:00 8,8 4,3 - - 22 12 ESE 1015,2 30 0,0
05.04.2020 04:00:00 8,9 4,6 - - 22 12 ESE 1015,8 40 0,0
05.04.2020 03:00:00 9,2 4,5 - - 22 12 SE 1016,4 30 0,0
05.04.2020 02:00:00 9,4 4,7 - - 21 11 ESE 1016,9 29 0,0
05.04.2020 01:00:00 9,7 5,3 - - 24 13 ESE 1017,6 19 0,0
05.04.2020 00:00:00 9,5 5,4 - - 18 10 E 1017,8 23 0,0
04.04.2020 23:00:00 9,5 5,0 - - 21 11 E 1018,0 29 0,0
04.04.2020 22:00:00 8,9 4,9 - - 15 8 E 1018,2 30 0,0
04.04.2020 21:00:00 9,1 4,2 - - 15 8 E 1018,2 45 0,0
04.04.2020 20:00:00 9,3 2,8 - - 15 8 E 1018,2 50 0,0
04.04.2020 19:00:00 10,8 3,2 - - 18 10 E 1018,3 45 0,0
04.04.2020 18:00:00 11,6 3,6 - - 21 11 ESE 1018,6 40 0,0
04.04.2020 17:00:00 12,2 3,4 - - 21 11 ESE 1019,1 35 0,0
04.04.2020 16:00:00 12,6 4,1 - - 22 12 SE 1019,5 30 0,0
04.04.2020 15:00:00 12,6 4,7 - - 21 11 ESE 1020,2 25 0,0
04.04.2020 14:00:00 12,9 6,6 - - 18 10 SSE 1020,6 40 0,0
04.04.2020 13:00:00 12,8 7,0 - - 18 10 SSE 1020,8 30 0,0
04.04.2020 12:00:00 11,9 6,8 - - 21 11 SE 1021,2 25 0,0
04.04.2020 11:00:00 11,7 6,5 - - 18 10 SSE 1021,3 22 0,0
04.04.2020 10:00:00 10,4 8,5 9,0 7,7 15 8 SE 1021,2 21 0,0
04.04.2020 09:00:00 8,2 7,9 - - 13 7 SE 1021,1 13 0,0
04.04.2020 08:00:00 7,6 7,5 - - 11 6 SSE 1020,9 10 0,0
04.04.2020 07:00:00 6,0 5,8 - - 5 3 SSE 1020,4 7 0,0
04.04.2020 06:00:00 6,2 6,1 - - 0 0 N 1020,4 2,8 0,0
04.04.2020 05:00:00 4,9 4,8 - - 2 1 SE 1020,4 0,2 0,0
04.04.2020 04:00:00 2,4 2,0 - - 8 4 NE 1020,3 6 0,0
04.04.2020 03:00:00 2,9 2,5 - - 4 2 ENE 1020,3 4,3 0,0
04.04.2020 02:00:00 2,8 2,2 - - 5 3 NE 1020,4 6 0,0
04.04.2020 01:00:00 4,1 3,5 - - 4 2 SE 1020,1 8 0,0
04.04.2020 00:00:00 4,9 4,0 - - 5 3 NE 1020,0 11 0,0
03.04.2020 23:00:00 7,2 5,8 - - 5 3 WNW 1019,8 27 0,0
03.04.2020 22:00:00 7,2 5,5 - - 5 3 W 1019,7 30 0,0
03.04.2020 21:00:00 8,6 6,1 - - 15 8 WSW 1019,6 50 0,0
03.04.2020 20:00:00 8,8 6,0 - - 11 6 WSW 1019,0 50 0,0
03.04.2020 19:00:00 11,3 5,8 - - 15 8 WSW 1018,6 45 0,0
03.04.2020 18:00:00 12,3 5,2 - - 21 11 WSW 1018,5 45 0,0
03.04.2020 17:00:00 13,4 4,4 - - 21 11 W 1018,3 45 0,0
03.04.2020 16:00:00 12,3 5,2 - - 18 10 WSW 1018,3 50 0,0
03.04.2020 15:00:00 12,6 5,2 - - 16 9 WSW 1018,5 45 0,0
03.04.2020 14:00:00 12,2 4,2 - - 11 6 W 1018,6 30 0,0
03.04.2020 13:00:00 11,5 3,2 - - 11 6 WNW 1018,7 40 0,0
03.04.2020 12:00:00 11,6 2,9 - - 13 7 WNW 1018,7 45 0,0
03.04.2020 11:00:00 11,5 3,4 - - 13 7 NW 1018,4 23 0,0
03.04.2020 10:00:00 9,8 4,2 8,7 7,7 13 7 NW 1018,2 30 0,0
03.04.2020 09:00:00 9,0 6,4 - - 9 5 NW 1017,7 20 0,0
03.04.2020 08:00:00 7,7 6,8 - - 8 4 WNW 1017,5 9 0,0
03.04.2020 07:00:00 7,8 6,7 - - 8 4 WNW 1017,0 12 0,0
03.04.2020 06:00:00 7,6 6,3 - - 5 3 WNW 1016,6 15 0,0
03.04.2020 05:00:00 7,5 6,0 - - 4 2 W 1016,3 15 0,0
03.04.2020 04:00:00 7,4 5,9 - - 8 4 W 1016,2 14 0,0
03.04.2020 03:00:00 7,7 6,1 - - 9 5 WNW 1016,1 14 0,0
03.04.2020 02:00:00 7,4 5,8 - - 9 5 W 1016,3 14 0,0
03.04.2020 01:00:00 8,4 5,8 - - 11 6 WNW 1016,1 17 0,0
03.04.2020 00:00:00 9,2 6,1 - - 13 7 W 1016,1 20 0,0
02.04.2020 23:00:00 9,3 6,1 - - 11 6 W 1016,0 19 0,0
02.04.2020 22:00:00 9,0 5,7 - - 11 6 W 1016,0 24 0,0
02.04.2020 21:00:00 10,2 5,5 - - 13 7 WNW 1015,6 26 0,0
02.04.2020 20:00:00 10,9 5,8 - - 21 11 WNW 1015,1 25 0,0
02.04.2020 19:00:00 11,8 5,4 - - 16 9 WNW 1014,8 45 0,0
02.04.2020 18:00:00 12,4 5,5 - - 21 11 WNW 1014,5 40 0,0
02.04.2020 17:00:00 13,3 5,5 - - 22 12 WNW 1014,5 40 0,0
02.04.2020 16:00:00 12,5 5,2 - - 18 10 NW 1015,0 45 0,0
02.04.2020 15:00:00 12,4 4,1 - - 21 11 WNW 1015,3 50 0,0
02.04.2020 14:00:00 12,3 3,3 - - 15 8 WNW 1015,7 50 0,0
02.04.2020 13:00:00 11,3 4,4 - - 18 10 WNW 1016,1 45 0,0
02.04.2020 12:00:00 10,3 4,8 - - 16 9 WSW 1016,6 45 0,0
02.04.2020 11:00:00 9,7 4,4 - - 18 10 W 1017,2 35 0,0
02.04.2020 10:00:00 7,7 3,9 8,2 7,7 15 8 W 1017,5 30 0,0
02.04.2020 09:00:00 6,5 3,5 - - 8 4 WNW 1017,8 40 0,0
02.04.2020 08:00:00 5,8 2,9 - - 8 4 WNW 1017,9 45 0,0
02.04.2020 07:00:00 6,1 1,8 - - 15 8 NW 1017,9 50 0,0
02.04.2020 06:00:00 6,0 1,2 - - 8 4 W 1018,0 45 0,0
02.04.2020 05:00:00 5,9 0,6 - - 0 0 N 1018,3 50 0,0
02.04.2020 04:00:00 6,0 0,9 - - 9 5 NW 1018,7 50 0,0
02.04.2020 03:00:00 6,0 0,9 - - 8 4 NW 1019,1 45 0,0
02.04.2020 02:00:00 6,2 1,0 - - 8 4 NW 1019,5 50 0,0
02.04.2020 01:00:00 6,2 1,3 - - 5 3 WNW 1019,8 50 0,0
02.04.2020 00:00:00 6,7 0,1 - - 4 2 NW 1020,1 50 0,0
01.04.2020 23:00:00 6,9 -0,2 - - 4 2 N 1020,5 50 0,0
01.04.2020 22:00:00 7,3 -1,1 - - 8 4 N 1020,6 50 0,0
01.04.2020 21:00:00 7,7 -1,8 - - 11 6 N 1020,7 50 0,0
01.04.2020 20:00:00 7,9 -0,6 - - 13 7 NNW 1020,6 50 0,0
01.04.2020 19:00:00 8,2 -1,2 - - 11 6 N 1020,7 50 0,0
01.04.2020 18:00:00 8,5 -0,6 - - 11 6 N 1021,0 45 0,0
01.04.2020 17:00:00 9,1 -0,6 - - 16 9 N 1021,2 45 0,0
01.04.2020 16:00:00 9,0 1,0 - - 9 5 WSW 1021,6 35 0,0
01.04.2020 15:00:00 8,3 1,8 - - 16 9 S 1022,0 40 0,0
01.04.2020 14:00:00 7,9 0,6 - - 16 9 S 1022,7 50 0,0
01.04.2020 13:00:00 9,5 -0,9 - - 8 4 N 1023,3 45 0,0
01.04.2020 12:00:00 9,3 0,8 - - 15 8 NE 1024,1 24 0,0
01.04.2020 11:00:00 7,5 -0,8 - - 11 6 NE 1024,8 40 0,0
01.04.2020 10:00:00 6,6 1,0 7,9 7,7 13 7 ENE 1025,3 30 0,0
01.04.2020 09:00:00 4,3 1,1 - - 13 7 NNE 1025,4 21 0,0
01.04.2020 08:00:00 1,5 -0,6 - - 15 8 N 1025,6 19 0,0
01.04.2020 07:00:00 -0,2 -1,6 - - 11 6 N 1025,7 22 0,0
01.04.2020 06:00:00 -0,3 -1,8 - - 9 5 N 1025,7 21 0,0
01.04.2020 05:00:00 0,5 -1,5 - - 13 7 N 1026,0 25 0,0
01.04.2020 04:00:00 1,1 -1,0 - - 8 4 N 1026,5 29 0,0
01.04.2020 03:00:00 0,5 -1,7 - - 9 5 NNE 1027,3 30 0,0
01.04.2020 02:00:00 0,1 -2,3 - - 11 6 NE 1027,8 28 0,0
01.04.2020 01:00:00 0,5 -2,3 - - 5 3 NNE 1028,3 35 0,0
01.04.2020 00:00:00 0,9 -2,7 - - 11 6 NNE 1028,6 45 0,0
31.03.2020 23:00:00 1,1 -2,0 - - 9 5 NE 1028,8 40 0,0
31.03.2020 22:00:00 3,2 -1,1 - - 11 6 ENE 1028,9 40 0,0
31.03.2020 21:00:00 5,6 0,1 - - 11 6 ENE 1029,1 40 0,0
31.03.2020 20:00:00 7,0 0,1 - - 13 7 ENE 1029,0 50 0,0
31.03.2020 19:00:00 8,2 -0,2 - - 26 14 ENE 1028,8 40 0,0
31.03.2020 18:00:00 9,2 0,0 - - 24 13 NE 1029,0 40 0,0
31.03.2020 17:00:00 9,5 -0,9 - - 28 15 NE 1029,2 50 -
31.03.2020 16:00:00 10,9 1,7 - - 18 10 ENE 1029,4 30 0,0
31.03.2020 15:00:00 9,5 1,6 - - 15 8 E 1029,9 35 0,0
31.03.2020 14:00:00 9,4 1,2 - - 18 10 E 1030,5 30 0,0
31.03.2020 13:00:00 9,2 1,4 - - 24 13 ENE 1030,9 45 0,0
31.03.2020 12:00:00 7,9 2,2 - - 28 15 ENE 1031,2 14 0,0
31.03.2020 11:00:00 8,0 1,8 - - 24 13 ENE 1031,5 24 0,0
31.03.2020 10:00:00 6,5 2,1 8,0 7,7 29 16 NE 1031,6 30 0,0
31.03.2020 09:00:00 5,5 1,7 - - 24 13 NNE 1031,5 30 0,0
31.03.2020 08:00:00 3,6 1,1 - - 15 8 NNE 1031,4 30 0,0
31.03.2020 07:00:00 2,4 0,5 - - 18 10 NNE 1031,0 23 0,0
31.03.2020 06:00:00 2,3 0,3 - - 15 8 NNE 1030,7 25 0,0
31.03.2020 05:00:00 3,7 1,1 - - 21 11 NNE 1030,6 27 0,0
31.03.2020 04:00:00 4,4 1,4 - - 21 11 NNE 1030,7 30 0,0
31.03.2020 03:00:00 4,8 1,9 - - 13 7 NNE 1031,0 30 0,0
31.03.2020 02:00:00 4,5 1,6 - - 15 8 NNE 1031,0 35 0,0
31.03.2020 01:00:00 4,6 1,0 - - 16 9 NNE 1031,1 50 0,0
31.03.2020 00:00:00 5,4 1,4 - - 18 10 NNE 1030,9 50 0,0
30.03.2020 23:00:00 6,0 1,7 - - 22 12 NNE 1031,2 50 0,0
30.03.2020 22:00:00 6,2 1,9 - - 21 11 NNE 1031,0 45 0,0

tt = temperature
td = dewpoint
tt -20cm = temperature -20cm
tt -100cm = temperature -100cm
ff = wind speed
dd = wind direction
ppp = reduced air pressure
vv = visibility
rr = precipitation

Next stations